Location: Newark
(10.7761°N, 106.6983°E)
Time: 12:21:03
(UTC+00:00)

Hubble Space Telescope - Visible Passes

Search period start: 23 July 2019 00:00
Search period end: 02 August 2019 00:00
Orbit: 536 x 540 km, 28.5° (Epoch: 22 July)

Date Brightness Start Highest point End Pass type
(mag) Time Alt. Az. Time Alt. Az. Time Alt. Az.
23 Jul 2.8 20:28:36 27° ENE 20:28:36 27° ENE 20:30:35 10° ENE visible
23 Jul 2.4 22:04:19 10° W 22:07:46 25° NNW 22:11:12 10° NE visible
24 Jul 3.2 20:18:41 21° ENE 20:18:41 21° ENE 20:20:06 10° ENE visible
24 Jul 2.7 21:54:15 10° WNW 21:57:19 20° NNW 22:00:24 10° NNE visible
25 Jul 3.7 20:08:43 15° NE 20:08:43 15° NE 20:09:33 10° NE visible
25 Jul 3.0 21:44:18 10° WNW 21:46:54 16° NNW 21:49:31 10° NNE visible
26 Jul 4.0 19:58:44 11° NE 19:58:44 11° NE 19:58:56 10° NE visible
26 Jul 3.2 21:34:30 10° NW 21:36:30 13° NNW 21:38:30 10° NNE visible
27 Jul 3.4 21:25:01 10° NNW 21:26:08 11° NNW 21:27:15 10° N visible
